Date String (YYYY-MM-DD hh:mm:ss) UTC,Instrument flags,Ambient pressure (hPa),Sample flow (lpm),Bypass flow (lpm),Sample temperature (°C),Ambient temperature (°C),ASC tube jacket temperature (°C),LED temperature (°C),Box temperature (°C),Sample RH (%),Span deviation,Mass concentration (μg/m³),Mass concentration (μg/m³),Mass concentration (μg/m³)
DateTimeUTC,F1_M11,P_M11,Q1_M11,Q2_M11,T1_M11,T2_M11,T3_M11,T4_M11,T5_M11,U1_M11,ZSPAN_M11,X0_M11,X2_M11,X1_M11
2022-01-19 23:00:00,,0831.7,4.99,0.00,22.2,22.0,00.0,31.2,23.8,10.4,0000.0,0002.98,0002.33,0002.16
2022-01-19 23:01:00,,0831.7,5.00,0.00,22.1,21.8,00.0,31.2,23.7,10.4,0000.0,0003.03,0002.35,0002.17
2022-01-19 23:02:00,,0831.7,5.00,0.00,22.1,21.7,00.0,31.1,23.7,10.4,0000.0,0002.99,0002.32,0002.13
2022-01-19 23:03:00,,0831.7,4.99,0.00,22.0,21.6,00.0,31.1,23.6,10.4,0000.0,0002.96,0002.31,0002.14
2022-01-19 23:04:00,,0831.8,5.00,0.00,22.0,21.4,00.0,31.1,23.5,10.4,0000.0,0003.21,0002.31,0002.14
2022-01-19 23:05:00,,0831.9,4.99,0.00,21.9,21.4,00.0,31.1,23.5,10.4,0000.0,0003.32,0002.30,0002.15
2022-01-19 23:06:00,,0831.9,5.00,0.00,21.9,21.6,00.0,31.1,23.5,10.4,0000.0,0003.30,0002.29,0002.16
2022-01-19 23:07:00,,0831.9,5.00,0.00,22.0,22.3,00.0,31.1,23.8,10.4,0000.0,0003.30,0002.29,0002.16
2022-01-19 23:08:00,,0832.0,5.01,0.00,22.2,23.1,00.0,31.1,24.1,10.3,0000.0,0003.25,0002.28,0002.17
2022-01-19 23:09:00,,0832.0,5.00,0.00,22.3,23.0,00.0,31.2,24.2,10.2,0000.0,0003.33,0002.33,0002.20
2022-01-19 23:10:00,,0832.0,5.00,0.00,22.3,22.5,00.0,31.2,24.1,10.2,0000.0,0003.41,0002.39,0002.24
2022-01-19 23:11:00,,0832.0,5.00,0.00,22.2,22.1,00.0,31.2,24.0,10.3,0000.0,0003.41,0002.40,0002.26
2022-01-19 23:12:00,,0831.9,4.99,0.00,22.2,21.8,00.0,31.1,23.9,10.3,0000.0,0003.45,0002.40,0002.27
2022-01-19 23:13:00,,0832.0,5.00,0.00,22.2,21.5,00.0,31.1,23.8,10.3,0000.0,0003.65,0002.47,0002.31
2022-01-19 23:14:00,,0832.0,5.01,0.00,22.1,21.3,00.0,31.1,23.7,10.4,0000.0,0003.69,0002.49,0002.32
2022-01-19 23:15:00,,0832.0,5.00,0.00,22.0,21.0,00.0,31.1,23.6,10.4,0000.0,0003.47,0002.51,0002.34
2022-01-19 23:16:00,,0832.0,4.99,0.00,22.0,20.9,00.0,31.1,23.5,10.4,0000.0,0003.42,0002.54,0002.34
2022-01-19 23:17:00,,0832.0,5.00,0.00,21.9,20.9,00.0,31.0,23.5,10.5,0000.0,0003.41,0002.53,0002.32
2022-01-19 23:18:00,,0832.0,5.01,0.00,21.9,21.0,00.0,31.0,23.4,10.5,0000.0,0003.38,0002.51,0002.31
2022-01-19 23:19:00,,0832.0,5.00,0.00,21.8,21.1,00.0,31.0,23.4,10.5,0000.0,0003.41,0002.52,0002.33
2022-01-19 23:20:00,,0832.0,5.00,0.00,21.9,21.8,00.0,31.0,23.6,10.5,0000.0,0003.40,0002.52,0002.33
2022-01-19 23:21:00,,0832.0,5.01,0.00,22.1,22.7,00.0,31.0,24.0,10.4,0000.0,0003.38,0002.51,0002.32
2022-01-19 23:22:00,,0832.0,4.99,0.00,22.2,23.1,00.0,31.1,24.1,10.3,0000.0,0003.43,0002.53,0002.34
2022-01-19 23:23:00,,0832.0,5.01,0.00,22.3,22.8,00.0,31.1,24.1,10.3,0000.0,0003.53,0002.57,0002.36
2022-01-19 23:24:00,,0832.0,4.99,0.00,22.2,22.5,00.0,31.1,24.0,10.3,0000.0,0003.78,0002.51,0002.33
2022-01-19 23:25:00,,0831.9,5.01,0.00,22.2,22.3,00.0,31.1,23.9,10.3,0000.0,0004.12,0002.48,0002.31
2022-01-19 23:26:00,,0832.0,5.00,0.00,22.2,22.1,00.0,31.1,23.8,10.3,0000.0,0004.10,0002.47,0002.31
2022-01-19 23:27:00,,0832.0,5.00,0.00,22.1,21.9,00.0,31.1,23.8,10.3,0000.0,0004.04,0002.46,0002.32
2022-01-19 23:28:00,,0832.0,5.00,0.00,22.1,21.7,00.0,31.1,23.7,10.3,0000.0,0004.08,0002.49,0002.35
2022-01-19 23:29:00,,0832.0,5.00,0.00,22.0,21.6,00.0,31.1,23.6,10.4,0000.0,0004.12,0002.52,0002.37
2022-01-19 23:30:00,,0832.0,4.99,0.00,22.0,21.5,00.0,31.1,23.6,10.4,0000.0,0004.14,0002.54,0002.39
2022-01-19 23:31:00,,0832.0,5.01,0.00,21.9,21.4,00.0,31.0,23.5,10.4,0000.0,0004.18,0002.57,0002.41
2022-01-19 23:32:00,,0832.0,4.98,0.00,21.9,21.3,00.0,31.0,23.5,10.4,0000.0,0004.17,0002.58,0002.43
2022-01-19 23:33:00,,0832.0,5.01,0.00,21.9,21.4,00.0,31.0,23.5,10.4,0000.0,0004.27,0002.61,0002.43
2022-01-19 23:34:00,,0832.0,5.00,0.00,22.0,22.1,00.0,31.0,23.7,10.4,0000.0,0004.27,0002.62,0002.43
2022-01-19 23:35:00,,0832.0,4.99,0.00,22.1,22.9,00.0,31.1,24.0,10.3,0000.0,0003.94,0002.65,0002.45
2022-01-19 23:36:00,,0831.9,5.00,0.00,22.3,23.1,00.0,31.1,24.2,10.2,0000.0,0003.45,0002.66,0002.46
2022-01-19 23:37:00,,0832.0,5.01,0.00,22.3,22.7,00.0,31.1,24.1,10.2,0000.0,0003.45,0002.67,0002.47
2022-01-19 23:38:00,,0832.0,5.00,0.00,22.2,22.2,00.0,31.1,24.0,10.2,0000.0,0003.44,0002.69,0002.49
2022-01-19 23:39:00,,0832.0,5.00,0.00,22.2,21.8,00.0,31.1,23.9,10.2,0000.0,0003.37,0002.66,0002.50
2022-01-19 23:40:00,,0832.0,5.01,0.00,22.1,21.5,00.0,31.1,23.8,10.2,0000.0,0003.39,0002.68,0002.50
2022-01-19 23:41:00,,0832.0,4.99,0.00,22.1,21.3,00.0,31.1,23.7,10.3,0000.0,0003.41,0002.70,0002.52
2022-01-19 23:42:00,,0832.0,5.01,0.00,22.0,21.1,00.0,31.1,23.6,10.3,0000.0,0003.35,0002.68,0002.52
2022-01-19 23:43:00,,0831.9,5.01,0.00,22.0,20.9,00.0,31.0,23.5,10.4,0000.0,0003.42,0002.72,0002.54
2022-01-19 23:44:00,,0832.0,5.00,0.00,21.9,20.9,00.0,31.0,23.5,10.4,0000.0,0003.44,0002.75,0002.58
2022-01-19 23:45:00,,0832.1,5.00,0.00,21.9,20.8,00.0,31.0,23.4,10.4,0000.0,0003.35,0002.76,0002.61
2022-01-19 23:46:00,,0832.1,5.00,0.00,21.8,20.9,00.0,30.9,23.4,10.5,0000.0,0003.43,0002.82,0002.63
2022-01-19 23:47:00,,0832.1,4.99,0.00,21.8,21.2,00.0,30.9,23.4,10.5,0000.0,0003.48,0002.86,0002.67
2022-01-19 23:48:00,,0832.1,5.00,0.00,21.9,22.1,00.0,31.0,23.7,10.4,0000.0,0003.55,0002.89,0002.69
2022-01-19 23:49:00,,0832.1,5.01,0.00,22.1,22.8,00.0,31.0,24.0,10.3,0000.0,0003.66,0002.96,0002.74
2022-01-19 23:50:00,,0832.1,4.99,0.00,22.2,22.9,00.0,31.0,24.1,10.3,0000.0,0003.80,0003.06,0002.82
2022-01-19 23:51:00,,0832.1,5.01,0.00,22.2,22.6,00.0,31.0,24.0,10.3,0000.0,0003.91,0003.13,0002.90
2022-01-19 23:52:00,,0832.1,5.00,0.00,22.2,22.3,00.0,31.1,24.0,10.3,0000.0,0003.95,0003.16,0002.96
2022-01-19 23:53:00,,0832.1,4.99,0.00,22.2,22.1,00.0,31.1,23.9,10.3,0000.0,0004.08,0003.22,0003.04
2022-01-19 23:54:00,,0832.1,5.00,0.00,22.1,21.9,00.0,31.0,23.8,10.3,0000.0,0004.17,0003.26,0003.09
2022-01-19 23:55:00,,0832.1,5.00,0.00,22.1,21.8,00.0,31.0,23.7,10.3,0000.0,0004.18,0003.28,0003.13
2022-01-19 23:56:00,,0832.0,4.99,0.00,22.0,21.6,00.0,31.0,23.6,10.4,0000.0,0004.25,0003.31,0003.16
2022-01-19 23:57:00,,0832.1,5.02,0.00,22.0,21.5,00.0,31.0,23.6,10.4,0000.0,0004.30,0003.33,0003.18
2022-01-19 23:58:00,,0832.0,4.99,0.00,21.9,21.4,00.0,31.0,23.4,10.4,0000.0,0004.37,0003.37,0003.21
2022-01-19 23:59:00,,0832.1,4.99,0.00,21.8,21.2,00.0,31.0,23.4,10.4,0000.0,0004.42,0003.40,0003.24
